This is the latest recevied weather packets stored in our database for station/object N0NB. If no packets are shown the sender has not sent any weather packets the latest 10 day(s).
| Time | Temp. | Humidity | Pressure | Rain* | Wind** | Luminosity | Snow |
|---|---|---|---|---|---|---|---|
| 1777671016 | 17.22° C | 34% | 1016.4 hPa | 0 mm | - | 514 W/m² | - |
| 1777670416 | 17.78° C | 34% | 1016.6 hPa | 0 mm | - | 473 W/m² | - |
| 1777669816 | 17.78° C | 34% | 1016.8 hPa | 0 mm | - | 726 W/m² | - |
| 1777669216 | 17.22° C | 36% | 1016.8 hPa | 0 mm | - | 760 W/m² | - |
| 1777668616 | 17.22° C | 35% | 1017.1 hPa | 0 mm | - | 762 W/m² | - |
| 1777668016 | 17.22° C | 36% | 1017.2 hPa | 0 mm | - | 819 W/m² | - |
| 1777667416 | 17.22° C | 34% | 1017.2 hPa | 0 mm | - | 376 W/m² | - |
| 1777666816 | 17.78° C | 36% | 1017.1 hPa | 0 mm | - | 846 W/m² | - |
| 1777666216 | 17.78° C | 36% | 1017.2 hPa | 0 mm | - | 822 W/m² | - |
| 1777665616 | 17.22° C | 37% | 1017.2 hPa | 0 mm | - | 817 W/m² | - |
| 1777665016 | 17.22° C | 36% | 1017.3 hPa | 0 mm | - | 828 W/m² | - |
| 1777664416 | 17.22° C | 35% | 1017.3 hPa | 0 mm | - | 842 W/m² | - |
| 1777663816 | 17.22° C | 34% | 1017.3 hPa | 0 mm | - | 847 W/m² | - |
| 1777663216 | 16.67° C | 39% | 1017.3 hPa | 0 mm | - | 861 W/m² | - |
| 1777662616 | 16.67° C | 35% | 1017.4 hPa | 0 mm | - | 866 W/m² | - |
| 1777662016 | 16.67° C | 36% | 1017.4 hPa | 0 mm | - | 869 W/m² | - |
| 1777661416 | 16.67° C | 39% | 1017.6 hPa | 0 mm | - | 888 W/m² | - |
| 1777660816 | 16.67° C | 38% | 1017.6 hPa | 0 mm | - | 852 W/m² | - |
| 1777660216 | 16.67° C | 38% | 1017.6 hPa | 0 mm | - | 803 W/m² | - |
| 1777659616 | 16.67° C | 40% | 1017.8 hPa | 0 mm | - | 883 W/m² | - |
| 1777659016 | 16.11° C | 40% | 1017.8 hPa | 0 mm | - | 904 W/m² | - |
| 1777658416 | 15.56° C | 46% | 1017.8 hPa | 0 mm | - | 887 W/m² | - |
| 1777657816 | 16.11° C | 42% | 1018.1 hPa | 0 mm | - | 771 W/m² | - |
| 1777657216 | 16.11° C | 45% | 1018 hPa | 0 mm | - | 920 W/m² | - |
| 1777656616 | 16.11° C | 42% | 1018.1 hPa | 0 mm | - | 863 W/m² | - |
* Rain latest hour (hover to see other rain measurements)
** Current wind speed in m/s (hover to see current wind gust speed)